Location: Goettingen
(51.5300°N, 9.9433°E)
Time: 20:01:52
(UTC+01:00)

ISS - Pass Details

Date: 22 January 2022
Orbit: 413 x 422 km, 51.6° (Epoch: 28 January)

Event Time Altitude Azimuth Distance (km) Brightness Sun altitude
Rises 18:13:14 0° 227° (SW) 2,339 1.3 -12.4°
Reaches altitude 10° 18:15:25 10° 218° (SW) 1,480 -0.1 -12.7°
Maximum altitude 18:18:27 34° 152° (SSE) 702 -2.8 -13.2°
Enters shadow 18:19:58 22° 103° (ESE) 954 -2.5 -13.4°
